| time (UTC) | temp F | wind direction | speed MPH | gust MPH | rain 1hr in | rain 24hr in | rain mn in | humidity % | barometer mb |
| 20260509024324 | 82 | 160 | 1.0 | 1.0 | 0.00 | 0.00 | 0.00 | 86 | 1008.0 |
| 20260509023822 | 82 | 54 | 3.0 | 3.0 | 0.00 | 0.00 | 0.00 | 86 | 1008.0 |
| 20260509023325 | 83 | 134 | 3.0 | 6.0 | 0.00 | 0.00 | 0.00 | 86 | 1008.0 |
| 20260509022822 | 82 | 39 | 2.0 | 2.0 | 0.00 | 0.00 | 0.00 | 87 | 1008.0 |
| 20260509022322 | 82 | 121 | 1.0 | 1.0 | 0.00 | 0.00 | 0.00 | 88 | 1008.0 |
| 20260509021824 | 81 | 18 | 5.0 | 6.0 | 0.00 | 0.00 | 0.00 | 88 | 1008.0 |
| 20260509021325 | 81 | 33 | 2.0 | 2.0 | 0.00 | 0.00 | 0.00 | 89 | 1008.0 |
| 20260509020824 | 81 | 126 | 2.0 | 3.0 | 0.00 | 0.00 | 0.00 | 90 | 1008.0 |
| 20260509020325 | 81 | 121 | 1.0 | 1.0 | 0.00 | 0.00 | 0.00 | 91 | 1008.0 |
| 20260509015823 | 81 | 20 | 2.0 | 3.0 | 0.00 | 0.00 | 0.00 | 91 | 1008.0 |
| 20260509015323 | 80 | 44 | 2.0 | 2.0 | 0.00 | 0.00 | 0.00 | 91 | 1008.0 |
| 20260509014822 | 80 | 10 | 2.0 | 3.0 | 0.00 | 0.00 | 0.00 | 91 | 1008.0 |
| 20260509013848 | 80 | 335 | 2.0 | 2.0 | 0.00 | 0.00 | 0.00 | 91 | 1008.0 |
| 20260509013323 | 80 | 359 | 3.0 | 3.0 | 0.00 | 0.00 | 0.00 | 91 | 1008.0 |
| 20260509012824 | 80 | 123 | 3.0 | 3.0 | 0.00 | 0.00 | 0.00 | 92 | 1007.0 |
| 20260509012323 | 80 | 65 | 3.0 | 3.0 | 0.00 | 0.00 | 0.00 | 92 | 1008.0 |
| 20260509011823 | 80 | 37 | 1.0 | 1.0 | 0.00 | 0.00 | 0.00 | 92 | 1007.0 |
| 20260509011326 | 80 | 100 | 1.0 | 2.0 | 0.00 | 0.00 | 0.00 | 92 | 1007.0 |
| 20260509010823 | 80 | 22 | 3.0 | 3.0 | 0.00 | 0.00 | 0.00 | 92 | 1007.0 |
| 20260509010326 | 80 | 131 | 2.0 | 2.0 | 0.00 | 0.00 | 0.00 | 91 | 1007.0 |
| 20260509005822 | 80 | 11 | 3.0 | 5.0 | 0.00 | 0.00 | 0.00 | 91 | 1007.0 |
| 20260509005322 | 79 | 103 | 3.0 | 5.0 | 0.00 | 0.00 | 0.00 | 91 | 1007.0 |
| 20260509004822 | 79 | 346 | 4.0 | 6.0 | 0.00 | 0.00 | 0.00 | 91 | 1007.0 |
| 20260509004324 | 79 | 59 | 3.0 | 3.0 | 0.00 | 0.00 | 0.00 | 92 | 1007.0 |
| 20260509003823 | 79 | 125 | 3.0 | 3.0 | 0.00 | 0.00 | 0.00 | 92 | 1007.0 |
| 20260509003326 | 79 | 346 | 3.0 | 3.0 | 0.00 | 0.00 | 0.00 | 92 | 1007.0 |
| 20260509002824 | 79 | 346 | 3.0 | 3.0 | 0.00 | 0.00 | 0.00 | 92 | 1007.0 |
| 20260509002326 | 79 | 12 | 1.0 | 1.0 | 0.00 | 0.00 | 0.00 | 92 | 1007.0 |
| 20260509001823 | 79 | 67 | 1.0 | 2.0 | 0.00 | 0.00 | 0.00 | 92 | 1007.0 |
| 20260509001322 | 79 | 131 | 1.0 | 1.0 | 0.00 | 0.00 | 0.00 | 92 | 1007.0 |
| 20260509000823 | 79 | 96 | 1.0 | 2.0 | 0.00 | 0.00 | 0.00 | 92 | 1007.0 |
| 20260509000326 | 79 | 48 | 1.0 | 2.0 | 0.00 | 0.00 | 0.00 | 92 | 1007.0 |
| 20260508235825 | 79 | 110 | 1.0 | 1.0 | 0.00 | 0.00 | 0.00 | 92 | 1007.0 |
| 20260508235322 | 79 | 113 | 2.0 | 2.0 | 0.00 | 0.00 | 0.00 | 92 | 1007.0 |
| 20260508234825 | 79 | 129 | 1.0 | 2.0 | 0.00 | 0.00 | 0.00 | 92 | 1007.0 |
| 20260508234323 | 79 | 36 | 1.0 | 2.0 | 0.00 | 0.00 | 0.00 | 92 | 1007.0 |
| 20260508233823 | 79 | 97 | 2.0 | 2.0 | 0.00 | 0.00 | 0.00 | 92 | 1007.0 |
| 20260508233326 | 79 | 155 | 1.0 | 1.0 | 0.00 | 0.00 | 0.00 | 92 | 1007.0 |
| 20260508232824 | 79 | 114 | 1.0 | 2.0 | 0.00 | 0.00 | 0.00 | 92 | 1006.0 |
| 20260508232325 | 79 | 30 | 3.0 | 3.0 | 0.00 | 0.00 | 0.00 | 93 | 1006.0 |
| 20260508231826 | 79 | 54 | 1.0 | 1.0 | 0.00 | 0.00 | 0.00 | 93 | 1006.0 |
| 20260508231323 | 79 | 85 | 2.0 | 2.0 | 0.00 | 0.00 | 0.00 | 93 | 1006.0 |
| 20260508230822 | 79 | 123 | 1.0 | 2.0 | 0.00 | 0.00 | 0.00 | 93 | 1006.0 |
| 20260508230327 | 79 | 85 | 3.0 | 3.0 | 0.00 | 0.00 | 0.00 | 93 | 1007.0 |
| 20260508225334 | 79 | 101 | 3.0 | 3.0 | 0.00 | 0.00 | 0.00 | 93 | 1007.0 |
| 20260508224828 | 79 | 126 | 2.0 | 2.0 | 0.00 | 0.00 | 0.00 | 93 | 1006.0 |
| 20260508224323 | 79 | 86 | 0.0 | 1.0 | 0.00 | 0.00 | 0.00 | 93 | 1007.0 |
| 20260508223824 | 79 | 122 | 0.0 | 0.0 | 0.00 | 0.00 | 0.00 | 93 | 1007.0 |
| 20260508223324 | 79 | 191 | 2.0 | 2.0 | 0.00 | 0.00 | 0.00 | 93 | 1006.0 |
| 20260508222824 | 79 | 25 | 2.0 | 3.0 | 0.00 | 0.00 | 0.00 | 93 | 1006.0 |
| 20260508222323 | 79 | 70 | 1.0 | 1.0 | 0.00 | 0.00 | 0.00 | 93 | 1006.0 |
| 20260508221824 | 79 | 349 | 3.0 | 3.0 | 0.00 | 0.00 | 0.00 | 93 | 1006.0 |
| 20260508221324 | 79 | 104 | 1.0 | 2.0 | 0.00 | 0.00 | 0.00 | 93 | 1006.0 |
| 20260508220828 | 79 | 91 | 1.0 | 2.0 | 0.00 | 0.00 | 0.00 | 93 | 1006.0 |
| 20260508220323 | 79 | 98 | 1.0 | 1.0 | 0.00 | 0.00 | 0.00 | 92 | 1006.0 |
| 20260508215823 | 79 | 75 | 1.0 | 1.0 | 0.00 | 0.00 | 0.00 | 92 | 1006.0 |
| 20260508215324 | 79 | 59 | 3.0 | 3.0 | 0.00 | 0.00 | 0.00 | 92 | 1006.0 |
| 20260508214823 | 79 | 70 | 2.0 | 2.0 | 0.00 | 0.00 | 0.00 | 92 | 1006.0 |
| 20260508214325 | 79 | 83 | 2.0 | 2.0 | 0.00 | 0.00 | 0.00 | 92 | 1006.0 |
| 20260508213822 | 79 | 115 | 4.0 | 5.0 | 0.00 | 0.00 | 0.00 | 92 | 1006.0 |
| 20260508213325 | 79 | 0 | 3.0 | 3.0 | 0.00 | 0.00 | 0.00 | 92 | 1006.0 |
| 20260508212822 | 79 | 71 | 2.0 | 2.0 | 0.00 | 0.00 | 0.00 | 92 | 1006.0 |
| 20260508212325 | 79 | 281 | 2.0 | 2.0 | 0.00 | 0.00 | 0.00 | 92 | 1006.0 |
| 20260508211826 | 79 | 22 | 3.0 | 3.0 | 0.00 | 0.00 | 0.00 | 92 | 1006.0 |
| 20260508211323 | 79 | 243 | 1.0 | 1.0 | 0.00 | 0.00 | 0.00 | 92 | 1007.0 |
| 20260508210824 | 79 | 72 | 1.0 | 2.0 | 0.00 | 0.00 | 0.00 | 92 | 1006.0 |
| 20260508210324 | 79 | 2 | 3.0 | 5.0 | 0.00 | 0.00 | 0.00 | 92 | 1006.0 |
| 20260508205823 | 79 | 36 | 2.0 | 2.0 | 0.00 | 0.00 | 0.00 | 92 | 1007.0 |
| 20260508205328 | 79 | 91 | 1.0 | 1.0 | 0.00 | 0.00 | 0.00 | 92 | 1006.0 |
| 20260508204826 | 79 | 10 | 3.0 | 5.0 | 0.00 | 0.00 | 0.00 | 92 | 1006.0 |
| 20260508204325 | 79 | 334 | 3.0 | 3.0 | 0.00 | 0.00 | 0.00 | 93 | 1006.0 |
| 20260508203826 | 79 | 117 | 1.0 | 1.0 | 0.00 | 0.00 | 0.00 | 93 | 1006.0 |
| 20260508203325 | 79 | 98 | 1.0 | 1.0 | 0.00 | 0.00 | 0.00 | 93 | 1006.0 |
| 20260508202824 | 79 | 150 | 2.0 | 2.0 | 0.00 | 0.00 | 0.00 | 93 | 1006.0 |
| 20260508202323 | 79 | 329 | 1.0 | 2.0 | 0.00 | 0.00 | 0.00 | 93 | 1006.0 |
| 20260508201826 | 79 | 101 | 1.0 | 1.0 | 0.00 | 0.00 | 0.00 | 93 | 1007.0 |
| 20260508201322 | 79 | 118 | 2.0 | 2.0 | 0.00 | 0.00 | 0.00 | 92 | 1007.0 |
| 20260508200826 | 79 | 72 | 2.0 | 2.0 | 0.00 | 0.00 | 0.00 | 92 | 1007.0 |
| 20260508200324 | 79 | 109 | 1.0 | 1.0 | 0.00 | 0.00 | 0.00 | 92 | 1007.0 |
| 20260508195822 | 79 | 71 | 2.0 | 2.0 | 0.00 | 0.00 | 0.00 | 92 | 1007.0 |
| 20260508195324 | 79 | 35 | 1.0 | 2.0 | 0.00 | 0.00 | 0.00 | 92 | 1007.0 |
| 20260508194824 | 79 | 85 | 2.0 | 2.0 | 0.00 | 0.00 | 0.00 | 92 | 1007.0 |
| 20260508194324 | 79 | 0 | 3.0 | 3.0 | 0.00 | 0.00 | 0.00 | 92 | 1007.0 |
| 20260508193830 | 79 | 128 | 2.0 | 2.0 | 0.00 | 0.00 | 0.00 | 92 | 1007.0 |
| 20260508193325 | 79 | 102 | 1.0 | 1.0 | 0.00 | 0.00 | 0.00 | 92 | 1007.0 |
| 20260508192824 | 79 | 93 | 1.0 | 1.0 | 0.00 | 0.00 | 0.00 | 92 | 1007.0 |
| 20260508192327 | 79 | 121 | 1.0 | 1.0 | 0.00 | 0.00 | 0.00 | 92 | 1007.0 |
| 20260508191825 | 79 | 117 | 1.0 | 1.0 | 0.00 | 0.00 | 0.00 | 92 | 1008.0 |
| 20260508191325 | 79 | 104 | 1.0 | 2.0 | 0.00 | 0.00 | 0.00 | 92 | 1008.0 |
| 20260508190824 | 80 | 86 | 0.0 | 0.0 | 0.00 | 0.00 | 0.00 | 92 | 1007.0 |
| 20260508190325 | 80 | 169 | 1.0 | 2.0 | 0.00 | 0.00 | 0.00 | 92 | 1008.0 |
| 20260508185825 | 80 | 106 | 1.0 | 1.0 | 0.00 | 0.00 | 0.00 | 92 | 1008.0 |
| 20260508185325 | 80 | 119 | 1.0 | 1.0 | 0.00 | 0.00 | 0.00 | 92 | 1008.0 |
| 20260508184825 | 80 | 81 | 0.0 | 1.0 | 0.00 | 0.00 | 0.00 | 91 | 1008.0 |
| 20260508184323 | 80 | 49 | 1.0 | 2.0 | 0.00 | 0.00 | 0.00 | 91 | 1008.0 |
| 20260508183825 | 80 | 120 | 1.0 | 2.0 | 0.00 | 0.00 | 0.00 | 91 | 1008.0 |
| 20260508183335 | 80 | 131 | 1.0 | 1.0 | 0.00 | 0.00 | 0.00 | 91 | 1008.0 |
| 20260508182828 | 80 | 103 | 0.0 | 1.0 | 0.00 | 0.00 | 0.60 | 91 | 1008.0 |
| 20260508182324 | 80 | 59 | 1.0 | 2.0 | 0.00 | 0.00 | 0.60 | 91 | 1008.0 |
| 20260508181824 | 80 | 123 | 1.0 | 1.0 | 0.00 | 0.00 | 0.60 | 91 | 1008.0 |
| 20260508181325 | 80 | 118 | 1.0 | 1.0 | 0.00 | 0.00 | 0.60 | 91 | 1008.0 |
| 20260508180827 | 80 | 116 | 0.0 | 0.0 | 0.00 | 0.00 | 0.60 | 91 | 1008.0 |
| 20260508180322 | 80 | 104 | 1.0 | 1.0 | 0.00 | 0.00 | 0.60 | 91 | 1009.0 |
| 20260508175826 | 80 | 81 | 1.0 | 1.0 | 0.00 | 0.00 | 0.60 | 91 | 1009.0 |
| 20260508175323 | 80 | 111 | 0.0 | 1.0 | 0.00 | 0.00 | 0.60 | 91 | 1009.0 |
| 20260508174825 | 80 | 106 | 1.0 | 1.0 | 0.00 | 0.00 | 0.60 | 91 | 1009.0 |
| 20260508174324 | 80 | 112 | 0.0 | 0.0 | 0.00 | 0.00 | 0.60 | 91 | 1009.0 |
| 20260508173824 | 80 | 111 | 0.0 | 1.0 | 0.00 | 0.00 | 0.60 | 91 | 1009.0 |
| 20260508173323 | 80 | 96 | 1.0 | 1.0 | 0.00 | 0.00 | 0.60 | 92 | 1009.0 |
| 20260508172823 | 80 | 114 | 1.0 | 1.0 | 0.00 | 0.00 | 0.60 | 92 | 1009.0 |
| 20260508172327 | 80 | 114 | 0.0 | 0.0 | 0.00 | 0.00 | 0.60 | 93 | 1009.0 |
| 20260508171824 | 80 | 67 | 1.0 | 1.0 | 0.00 | 0.00 | 0.60 | 93 | 1009.0 |
| 20260508171323 | 80 | 119 | 0.0 | 0.0 | 0.00 | 0.00 | 0.60 | 93 | 1009.0 |
| 20260508170825 | 80 | 112 | 0.0 | 0.0 | 0.00 | 0.00 | 0.60 | 93 | 1009.0 |
| 20260508170325 | 80 | 130 | 0.0 | 1.0 | 0.00 | 0.00 | 0.60 | 93 | 1009.0 |
| 20260508165823 | 80 | 116 | 1.0 | 1.0 | 0.00 | 0.00 | 0.60 | 93 | 1009.0 |
| 20260508165324 | 80 | 121 | 0.0 | 1.0 | 0.00 | 0.00 | 0.60 | 93 | 1009.0 |
| 20260508164826 | 80 | 114 | 0.0 | 0.0 | 0.00 | 0.00 | 0.60 | 93 | 1009.0 |
| 20260508164326 | 80 | 118 | 0.0 | 0.0 | 0.00 | 0.00 | 0.60 | 93 | 1009.0 |
| 20260508163827 | 80 | 119 | 0.0 | 0.0 | 0.00 | 0.00 | 0.60 | 93 | 1009.0 |
| 20260508163324 | 80 | 124 | 0.0 | 0.0 | 0.00 | 0.00 | 0.60 | 93 | 1009.0 |
| 20260508162823 | 80 | 118 | 0.0 | 0.0 | 0.00 | 0.00 | 0.60 | 93 | 1008.0 |
| 20260508162324 | 80 | 116 | 0.0 | 0.0 | 0.00 | 0.00 | 0.60 | 93 | 1009.0 |
| 20260508161824 | 80 | 117 | 0.0 | 0.0 | 0.00 | 0.00 | 0.60 | 93 | 1009.0 |
| 20260508161324 | 80 | 117 | 0.0 | 1.0 | 0.00 | 0.00 | 0.60 | 93 | 1008.0 |
| 20260508160825 | 80 | 119 | 0.0 | 1.0 | 0.00 | 0.00 | 0.60 | 93 | 1008.0 |
| 20260508160324 | 80 | 115 | 0.0 | 0.0 | 0.00 | 0.00 | 0.60 | 93 | 1008.0 |
| 20260508155824 | 80 | 96 | 1.0 | 1.0 | 0.00 | 0.00 | 0.60 | 93 | 1009.0 |
| 20260508155323 | 80 | 121 | 0.0 | 0.0 | 0.00 | 0.00 | 0.60 | 93 | 1008.0 |
| 20260508154823 | 80 | 121 | 0.0 | 0.0 | 0.00 | 0.00 | 0.60 | 93 | 1009.0 |
| 20260508154329 | 80 | 118 | 0.0 | 0.0 | 0.00 | 0.00 | 0.60 | 92 | 1009.0 |
| 20260508153825 | 80 | 109 | 0.0 | 0.0 | 0.00 | 0.00 | 0.60 | 92 | 1009.0 |
| 20260508153329 | 80 | 102 | 0.0 | 1.0 | 0.00 | 0.00 | 0.60 | 92 | 1009.0 |
| 20260508152824 | 80 | 117 | 0.0 | 0.0 | 0.00 | 0.00 | 0.60 | 92 | 1008.0 |
| 20260508152326 | 80 | 123 | 0.0 | 0.0 | 0.00 | 0.00 | 0.60 | 92 | 1008.0 |
| 20260508151824 | 80 | 115 | 0.0 | 0.0 | 0.00 | 0.00 | 0.60 | 92 | 1008.0 |
| 20260508151324 | 80 | 119 | 0.0 | 0.0 | 0.00 | 0.00 | 0.60 | 92 | 1008.0 |
| 20260508150822 | 80 | 119 | 0.0 | 0.0 | 0.00 | 0.00 | 0.60 | 92 | 1008.0 |
| 20260508150326 | 80 | 110 | 0.0 | 0.0 | 0.00 | 0.00 | 0.60 | 92 | 1008.0 |
| 20260508145825 | 80 | 118 | 0.0 | 0.0 | 0.00 | 0.00 | 0.60 | 92 | 1008.0 |
| 20260508145325 | 80 | 115 | 0.0 | 0.0 | 0.00 | 0.00 | 0.60 | 92 | 1008.0 |
| 20260508144822 | 80 | 119 | 0.0 | 0.0 | 0.00 | 0.00 | 0.60 | 92 | 1008.0 |
| 20260508144323 | 80 | 113 | 0.0 | 0.0 | 0.00 | 0.00 | 0.60 | 92 | 1008.0 |
| 20260508143824 | 80 | 117 | 0.0 | 0.0 | 0.00 | 0.00 | 0.60 | 92 | 1008.0 |
| 20260508143324 | 80 | 110 | 0.0 | 0.0 | 0.00 | 0.00 | 0.60 | 93 | 1008.0 |
| 20260508142824 | 80 | 104 | 0.0 | 0.0 | 0.00 | 0.00 | 0.60 | 93 | 1008.0 |
| 20260508142324 | 80 | 118 | 0.0 | 0.0 | 0.00 | 0.00 | 0.60 | 93 | 1008.0 |
| 20260508141824 | 80 | 104 | 0.0 | 1.0 | 0.00 | 0.00 | 0.60 | 93 | 1007.0 |
| 20260508141324 | 80 | 114 | 0.0 | 0.0 | 0.00 | 0.00 | 0.60 | 93 | 1007.0 |
| 20260508140824 | 80 | 115 | 0.0 | 0.0 | 0.00 | 0.00 | 0.60 | 93 | 1008.0 |
| 20260508140325 | 80 | 119 | 0.0 | 0.0 | 0.00 | 0.00 | 0.60 | 93 | 1007.0 |
| 20260508135825 | 80 | 121 | 0.0 | 0.0 | 0.00 | 0.00 | 0.60 | 93 | 1007.0 |
| 20260508135322 | 80 | 110 | 0.0 | 0.0 | 0.00 | 0.00 | 0.60 | 92 | 1007.0 |
| 20260508134825 | 80 | 115 | 0.0 | 0.0 | 0.00 | 0.00 | 0.60 | 92 | 1007.0 |
| 20260508134324 | 80 | 114 | 0.0 | 1.0 | 0.00 | 0.00 | 0.60 | 92 | 1007.0 |
| 20260508133823 | 80 | 116 | 0.0 | 0.0 | 0.00 | 0.00 | 0.60 | 92 | 1007.0 |
| 20260508133322 | 80 | 116 | 0.0 | 0.0 | 0.00 | 0.00 | 0.60 | 92 | 1007.0 |
| 20260508132824 | 80 | 116 | 0.0 | 0.0 | 0.00 | 0.00 | 0.60 | 92 | 1007.0 |
| 20260508132327 | 80 | 119 | 0.0 | 0.0 | 0.00 | 0.00 | 0.60 | 92 | 1007.0 |
| 20260508131826 | 80 | 101 | 0.0 | 0.0 | 0.00 | 0.00 | 0.60 | 92 | 1007.0 |
| 20260508131325 | 80 | 99 | 0.0 | 1.0 | 0.00 | 0.00 | 0.60 | 92 | 1007.0 |
| 20260508130824 | 80 | 79 | 2.0 | 2.0 | 0.00 | 0.00 | 0.60 | 91 | 1007.0 |
| 20260508130325 | 80 | 101 | 1.0 | 1.0 | 0.00 | 0.00 | 0.60 | 91 | 1007.0 |
| 20260508125824 | 81 | 78 | 0.0 | 1.0 | 0.00 | 0.00 | 0.60 | 91 | 1007.0 |
| 20260508125324 | 81 | 113 | 0.0 | 0.0 | 0.00 | 0.00 | 0.60 | 91 | 1007.0 |
| 20260508124825 | 80 | 118 | 1.0 | 1.0 | 0.00 | 0.00 | 0.60 | 91 | 1007.0 |
| 20260508124325 | 80 | 97 | 1.0 | 1.0 | 0.00 | 0.00 | 0.60 | 91 | 1007.0 |
| 20260508123826 | 81 | 71 | 1.0 | 2.0 | 0.00 | 0.00 | 0.60 | 92 | 1006.0 |
| 20260508123325 | 81 | 112 | 0.0 | 1.0 | 0.00 | 0.00 | 0.60 | 92 | 1007.0 |
| 20260508122824 | 81 | 110 | 0.0 | 0.0 | 0.00 | 0.00 | 0.60 | 92 | 1007.0 |
| 20260508122324 | 81 | 91 | 2.0 | 2.0 | 0.00 | 0.00 | 0.60 | 92 | 1006.0 |
| 20260508121824 | 80 | 113 | 0.0 | 0.0 | 0.00 | 0.00 | 0.60 | 92 | 1007.0 |
| 20260508121325 | 80 | 117 | 0.0 | 0.0 | 0.00 | 0.00 | 0.60 | 92 | 1006.0 |
| 20260508120825 | 80 | 117 | 0.0 | 0.0 | 0.05 | 0.00 | 0.60 | 93 | 1006.0 |
| 20260508120325 | 80 | 112 | 0.0 | 0.0 | 0.05 | 0.00 | 0.60 | 93 | 1006.0 |
| 20260508115824 | 80 | 117 | 0.0 | 0.0 | 0.05 | 0.00 | 0.60 | 93 | 1006.0 |
| 20260508115326 | 80 | 119 | 0.0 | 0.0 | 0.07 | 0.00 | 0.59 | 93 | 1006.0 |
| 20260508114823 | 81 | 117 | 0.0 | 0.0 | 0.07 | 0.00 | 0.59 | 93 | 1006.0 |
| 20260508114325 | 81 | 125 | 0.0 | 0.0 | 0.07 | 0.00 | 0.59 | 93 | 1006.0 |
| 20260508113823 | 81 | 121 | 0.0 | 0.0 | 0.05 | 0.00 | 0.58 | 93 | 1006.0 |
| 20260508113324 | 81 | 124 | 0.0 | 0.0 | 0.05 | 0.00 | 0.58 | 93 | 1006.0 |
| 20260508112827 | 81 | 125 | 0.0 | 0.0 | 0.07 | 0.00 | 0.57 | 93 | 1006.0 |
| 20260508112329 | 80 | 111 | 0.0 | 1.0 | 0.07 | 0.00 | 0.57 | 93 | 1005.0 |
| 20260508111824 | 80 | 122 | 0.0 | 0.0 | 0.00 | 0.00 | 0.56 | 93 | 1006.0 |
| 20260508111323 | 80 | 121 | 0.0 | 0.0 | 0.00 | 0.00 | 0.56 | 93 | 1005.0 |
| 20260508110828 | 80 | 122 | 0.0 | 0.0 | 0.00 | 0.00 | 0.56 | 93 | 1005.0 |
| 20260508110326 | 80 | 146 | 1.0 | 2.0 | 0.00 | 0.00 | 0.56 | 93 | 1005.0 |
| 20260508105824 | 80 | 142 | 1.0 | 1.0 | 0.00 | 0.00 | 0.56 | 93 | 1006.0 |
| 20260508105323 | 80 | 117 | 0.0 | 0.0 | 0.00 | 0.00 | 0.56 | 93 | 1005.0 |
| 20260508104822 | 80 | 118 | 0.0 | 0.0 | 0.00 | 0.00 | 0.56 | 93 | 1006.0 |
| 20260508104327 | 80 | 119 | 0.0 | 0.0 | 0.00 | 0.00 | 0.56 | 93 | 1006.0 |
| 20260508103824 | 80 | 93 | 0.0 | 0.0 | 0.00 | 0.00 | 0.56 | 93 | 1006.0 |
| 20260508103326 | 79 | 116 | 0.0 | 0.0 | 0.00 | 0.00 | 0.56 | 93 | 1006.0 |
| 20260508102825 | 79 | 116 | 0.0 | 0.0 | 0.00 | 0.00 | 0.56 | 93 | 1006.0 |
| 20260508102323 | 79 | 116 | 0.0 | 0.0 | 0.00 | 0.00 | 0.56 | 93 | 1006.0 |
| 20260508101826 | 79 | 122 | 1.0 | 2.0 | 0.00 | 0.00 | 0.56 | 93 | 1006.0 |
| 20260508101324 | 79 | 119 | 0.0 | 0.0 | 0.00 | 0.00 | 0.56 | 93 | 1006.0 |
| 20260508100824 | 79 | 143 | 1.0 | 1.0 | 0.00 | 0.00 | 0.56 | 93 | 1006.0 |
| 20260508100326 | 80 | 154 | 1.0 | 1.0 | 0.00 | 0.00 | 0.56 | 92 | 1005.0 |
| 20260508095822 | 80 | 127 | 0.0 | 0.0 | 0.07 | 0.00 | 0.56 | 93 | 1006.0 |
| 20260508095327 | 79 | 124 | 0.0 | 0.0 | 0.07 | 0.00 | 0.56 | 92 | 1006.0 |
| 20260508094824 | 79 | 128 | 0.0 | 0.0 | 0.00 | 0.00 | 0.55 | 92 | 1006.0 |
| 20260508094324 | 79 | 109 | 0.0 | 0.0 | 0.00 | 0.00 | 0.55 | 92 | 1006.0 |
| 20260508093826 | 79 | 110 | 0.0 | 0.0 | 0.00 | 0.00 | 0.55 | 92 | 1006.0 |
| 20260508093326 | 78 | 13 | 2.0 | 2.0 | 0.00 | 0.00 | 0.55 | 92 | 1006.0 |
| 20260508092824 | 78 | 98 | 2.0 | 2.0 | 0.00 | 0.00 | 0.55 | 92 | 1006.0 |
| 20260508092326 | 78 | 100 | 2.0 | 3.0 | 0.00 | 0.00 | 0.55 | 92 | 1006.0 |
| 20260508091824 | 78 | 81 | 2.0 | 2.0 | 0.00 | 0.00 | 0.55 | 92 | 1005.0 |
| 20260508091332 | 78 | 117 | 0.0 | 0.0 | 0.00 | 0.00 | 0.55 | 92 | 1006.0 |
| 20260508090835 | 78 | 43 | 2.0 | 2.0 | 0.00 | 0.00 | 0.55 | 91 | 1006.0 |
| 20260508090327 | 78 | 329 | 2.0 | 2.0 | 0.00 | 0.00 | 0.55 | 92 | 1006.0 |
| 20260508085824 | 77 | 70 | 3.0 | 5.0 | 0.00 | 0.00 | 0.55 | 91 | 1006.0 |
| 20260508085324 | 77 | 125 | 2.0 | 3.0 | 0.05 | 0.00 | 0.55 | 91 | 1006.0 |
| 20260508084824 | 77 | 25 | 4.0 | 5.0 | 0.24 | 0.00 | 0.55 | 91 | 1006.0 |
| 20260508084324 | 80 | 315 | 3.0 | 5.0 | 0.28 | 0.00 | 0.55 | 91 | 1006.0 |
| 20260508083824 | 81 | 127 | 1.0 | 2.0 | 0.66 | 0.00 | 0.51 | 92 | 1006.0 |
| 20260508083325 | 81 | 57 | 2.0 | 3.0 | 1.49 | 0.00 | 0.49 | 91 | 1006.0 |
| 20260508082824 | 82 | 64 | 8.0 | 9.0 | 1.02 | 0.00 | 0.40 | 88 | 1006.0 |
| 20260508082322 | 84 | 94 | 2.0 | 2.0 | 0.19 | 0.00 | 0.24 | 83 | 1006.0 |
| 20260508081826 | 89 | 107 | 3.0 | 6.0 | 0.12 | 0.00 | 0.23 | 75 | 1006.0 |
| 20260508081326 | 89 | 105 | 1.0 | 1.0 | 0.00 | 0.00 | 0.21 | 69 | 1006.0 |
| 20260508080826 | 90 | 74 | 1.0 | 2.0 | 0.00 | 0.00 | 0.21 | 67 | 1006.0 |
| 20260508080327 | 91 | 86 | 1.0 | 1.0 | 0.00 | 0.00 | 0.21 | 66 | 1006.0 |
| 20260508075825 | 91 | 123 | 1.0 | 1.0 | 0.00 | 0.00 | 0.21 | 67 | 1006.0 |
| 20260508075326 | 91 | 95 | 1.0 | 1.0 | 0.00 | 0.00 | 0.21 | 66 | 1006.0 |
| 20260508074824 | 91 | 135 | 1.0 | 1.0 | 0.00 | 0.00 | 0.21 | 66 | 1006.0 |
| 20260508074322 | 92 | 140 | 1.0 | 1.0 | 0.00 | 0.00 | 0.21 | 63 | 1006.0 |
| 20260508073826 | 91 | 128 | 0.0 | 1.0 | 0.00 | 0.00 | 0.21 | 67 | 1006.0 |
| 20260508073326 | 91 | 83 | 1.0 | 1.0 | 0.00 | 0.00 | 0.21 | 67 | 1007.0 |
| 20260508072823 | 91 | 102 | 1.0 | 1.0 | 0.00 | 0.00 | 0.21 | 67 | 1007.0 |
| 20260508072325 | 91 | 150 | 0.0 | 1.0 | 0.00 | 0.00 | 0.21 | 66 | 1007.0 |
| 20260508071826 | 92 | 169 | 2.0 | 2.0 | 0.00 | 0.00 | 0.21 | 66 | 1007.0 |
| 20260508071326 | 92 | 165 | 1.0 | 1.0 | 0.00 | 0.00 | 0.21 | 65 | 1007.0 |
| 20260508070826 | 92 | 125 | 1.0 | 1.0 | 0.00 | 0.00 | 0.21 | 67 | 1007.0 |
| 20260508070325 | 91 | 105 | 2.0 | 3.0 | 0.00 | 0.00 | 0.21 | 69 | 1007.0 |
| 20260508065824 | 91 | 72 | 1.0 | 1.0 | 0.00 | 0.00 | 0.21 | 69 | 1007.0 |
| 20260508065323 | 91 | 116 | 0.0 | 0.0 | 0.00 | 0.00 | 0.21 | 69 | 1007.0 |
| 20260508064825 | 91 | 85 | 1.0 | 2.0 | 0.00 | 0.00 | 0.21 | 69 | 1007.0 |
| 20260508064326 | 91 | 105 | 2.0 | 3.0 | 0.00 | 0.00 | 0.21 | 68 | 1007.0 |
| 20260508063826 | 91 | 140 | 1.0 | 2.0 | 0.00 | 0.00 | 0.21 | 69 | 1007.0 |
| 20260508063324 | 91 | 117 | 0.0 | 0.0 | 0.00 | 0.00 | 0.21 | 70 | 1007.0 |
| 20260508062824 | 90 | 100 | 1.0 | 2.0 | 0.00 | 0.00 | 0.21 | 71 | 1008.0 |
| 20260508062326 | 90 | 85 | 1.0 | 2.0 | 0.00 | 0.00 | 0.21 | 71 | 1008.0 |
| 20260508061827 | 90 | 66 | 1.0 | 1.0 | 0.00 | 0.00 | 0.21 | 72 | 1008.0 |
| 20260508061323 | 90 | 11 | 3.0 | 3.0 | 0.00 | 0.00 | 0.21 | 72 | 1008.0 |
| 20260508060826 | 89 | 115 | 1.0 | 1.0 | 0.00 | 0.00 | 0.21 | 74 | 1008.0 |
| 20260508060325 | 89 | 92 | 2.0 | 2.0 | 0.00 | 0.00 | 0.21 | 74 | 1008.0 |
| 20260508055822 | 88 | 116 | 1.0 | 1.0 | 0.00 | 0.00 | 0.21 | 74 | 1008.0 |
| 20260508055326 | 89 | 76 | 1.0 | 2.0 | 0.00 | 0.00 | 0.21 | 74 | 1008.0 |
| 20260508054826 | 90 | 121 | 1.0 | 2.0 | 0.00 | 0.00 | 0.21 | 73 | 1008.0 |
| 20260508054326 | 89 | 122 | 0.0 | 0.0 | 0.00 | 0.00 | 0.21 | 75 | 1008.0 |
| 20260508053824 | 88 | 127 | 0.0 | 0.0 | 0.00 | 0.00 | 0.21 | 76 | 1008.0 |
| 20260508053324 | 88 | 90 | 1.0 | 1.0 | 0.00 | 0.00 | 0.21 | 76 | 1008.0 |
| 20260508052826 | 88 | 128 | 1.0 | 1.0 | 0.00 | 0.00 | 0.21 | 75 | 1008.0 |
| 20260508052324 | 87 | 106 | 2.0 | 2.0 | 0.00 | 0.00 | 0.21 | 74 | 1008.0 |
| 20260508051826 | 87 | 109 | 2.0 | 2.0 | 0.00 | 0.00 | 0.21 | 76 | 1008.0 |
| 20260508051326 | 87 | 91 | 3.0 | 3.0 | 0.00 | 0.00 | 0.21 | 76 | 1008.0 |
| 20260508050826 | 87 | 82 | 3.0 | 5.0 | 0.00 | 0.00 | 0.21 | 77 | 1008.0 |
| 20260508050322 | 86 | 70 | 3.0 | 3.0 | 0.00 | 0.00 | 0.21 | 78 | 1009.0 |
| 20260508045823 | 85 | 151 | 1.0 | 1.0 | 0.00 | 0.00 | 0.21 | 78 | 1009.0 |
| 20260508045323 | 86 | 105 | 0.0 | 1.0 | 0.00 | 0.00 | 0.21 | 78 | 1009.0 |
| 20260508044822 | 86 | 100 | 1.0 | 1.0 | 0.00 | 0.00 | 0.21 | 79 | 1009.0 |
| 20260508044323 | 85 | 27 | 1.0 | 2.0 | 0.00 | 0.00 | 0.21 | 79 | 1009.0 |
| 20260508043823 | 85 | 88 | 1.0 | 1.0 | 0.00 | 0.00 | 0.21 | 80 | 1009.0 |
| 20260508043324 | 85 | 105 | 1.0 | 1.0 | 0.00 | 0.00 | 0.21 | 80 | 1009.0 |
| 20260508042823 | 85 | 60 | 1.0 | 1.0 | 0.00 | 0.00 | 0.21 | 80 | 1009.0 |
| 20260508042323 | 85 | 113 | 1.0 | 1.0 | 0.00 | 0.00 | 0.21 | 79 | 1009.0 |
| 20260508041825 | 85 | 101 | 1.0 | 1.0 | 0.00 | 0.00 | 0.21 | 79 | 1009.0 |
| 20260508041325 | 85 | 110 | 0.0 | 0.0 | 0.00 | 0.00 | 0.21 | 80 | 1009.0 |
| 20260508040826 | 85 | 116 | 1.0 | 1.0 | 0.00 | 0.00 | 0.21 | 80 | 1009.0 |
| 20260508040322 | 85 | 66 | 3.0 | 3.0 | 0.00 | 0.00 | 0.21 | 79 | 1009.0 |
| 20260508035823 | 85 | 57 | 2.0 | 2.0 | 0.00 | 0.00 | 0.21 | 80 | 1009.0 |
| 20260508035326 | 84 | 110 | 0.0 | 1.0 | 0.00 | 0.00 | 0.21 | 80 | 1008.0 |
| 20260508034823 | 84 | 144 | 1.0 | 1.0 | 0.00 | 0.00 | 0.21 | 81 | 1008.0 |
| 20260508034323 | 84 | 117 | 1.0 | 1.0 | 0.00 | 0.00 | 0.21 | 81 | 1008.0 |
| 20260508033823 | 84 | 175 | 2.0 | 3.0 | 0.00 | 0.00 | 0.21 | 81 | 1008.0 |
| 20260508033324 | 84 | 137 | 1.0 | 1.0 | 0.00 | 0.00 | 0.21 | 81 | 1008.0 |
| 20260508032826 | 84 | 91 | 2.0 | 2.0 | 0.00 | 0.00 | 0.21 | 81 | 1008.0 |
| 20260508032326 | 84 | 108 | 2.0 | 2.0 | 0.00 | 0.00 | 0.21 | 80 | 1008.0 |
| 20260508031825 | 84 | 166 | 3.0 | 5.0 | 0.00 | 0.00 | 0.21 | 80 | 1008.0 |
| 20260508031324 | 84 | 107 | 1.0 | 1.0 | 0.00 | 0.00 | 0.21 | 81 | 1008.0 |
| 20260508030822 | 84 | 12 | 2.0 | 2.0 | 0.00 | 0.00 | 0.21 | 81 | 1008.0 |
| 20260508030327 | 84 | 108 | 2.0 | 2.0 | 0.00 | 0.00 | 0.21 | 81 | 1008.0 |
| 20260508025823 | 83 | 72 | 1.0 | 2.0 | 0.00 | 0.00 | 0.21 | 81 | 1008.0 |
| 20260508025324 | 83 | 187 | 5.0 | 5.0 | 0.00 | 0.00 | 0.21 | 81 | 1008.0 |
| 20260508024823 | 83 | 76 | 2.0 | 2.0 | 0.00 | 0.00 | 0.21 | 82 | 1008.0 |